Hourly Data Report for May 02, 2021

WESTERN HEAD
NOVA SCOTIA
Current Station Operator: ECCC - MSC

43°59'24.070" N
64°39'51.008" W
10.10 m
8206240
71411
WWE

Download Data

Hourly Data (May 2021)
Hourly Data Report for May 2, 2021
TIME
LST
Temp Definition
°C
Dew Point Definition
°C
Rel Hum Definition
%
Precip. Amount Definition
mm

Wind Dir Definition
10's deg

Wind Spd Definition
km/h
Visibility Definition
km
Stn Press Definition
kPa
Hmdx Definition


Wind Chill Definition


Weather Definition


00:00 5.3 0.9 73 0.0 27 13   100.29     LegendNANA
01:00 4.4 0.3 74 0.0 27 12   100.33     LegendNANA
02:00 3.8 -0.1 76 0.0 27 11   100.37     LegendNANA
03:00 4.3 -0.8 69 0.0 26 15   100.42     LegendNANA
04:00 4.6 -1.0 67 0.0 27 13   100.43     LegendNANA
05:00 5.1 -0.4 68 0.0 25 9   100.45     LegendNANA
06:00 5.2 1.3 76 0.0 24 8   100.52     LegendNANA
07:00 5.3 2.8 84 0.0 20 17   100.54     LegendNANA
08:00 6.9 3.4 78 0.0 22 21   100.53     LegendNANA
09:00 9.8 2.7 61 0.0 22 21   100.46     LegendNANA
10:00 9.3 3.3 66 0.0 20 23   100.38     LegendNANA
11:00 8.1 4.1 76 0.0 19 24   100.32     LegendNANA
12:00 7.0 4.9 86 0.0 19 26   100.28     LegendNANA
13:00 8.7 5.5 80 0.0 19 24   100.15     LegendNANA
14:00 8.5 5.6 82 0.0 19 32   99.98     LegendNANA
15:00 8.7 5.7 81 0.0 20 37   99.88     LegendNANA
16:00 8.7 5.8 83 0.0 20 36   99.83     LegendNANA
17:00 8.9 6.0 82 0.0 20 27   99.79     LegendNANA
18:00 14.2 5.7 57 0.0 25 19   99.81     LegendNANA
19:00 11.5 5.3 66 0.0 24 12   99.91     LegendNANA
20:00 6.3 5.3 94 0.0 21 13   99.98     LegendNANA
21:00 6.7 5.9 95 0.0 22 15   100.05     LegendNANA
22:00 5.8 5.4 97 0.0 21 7   100.11     LegendNANA
23:00 5.6 5.2 98 0.0 24 10   100.14     LegendNANA

Notes on Data Quality.

Legend

  • E = Estimated
  • M = Missing
  • NA = Not Available*
  • [empty] = Indicates an unobserved value
Date modified: